Two Harbors, MN

1:33 PM CST on December 05, 2016 (GMT -0600)
Silver Bay Municipal

Weather History for KBFW - April, 2013

Change the Weather History Date:

Saturday, April 27, 2013

  Actual Average Record
Temperature  
Mean Temperature 46 °F -  
Max Temperature 66 °F 52 °F 66 °F (2007)
Min Temperature 26 °F 27 °F 17 °F (1998)
Degree Days  
Heating Degree Days 19    
Moisture  
Dew Point 26 °F    
Average Humidity 54    
Maximum Humidity 93    
Minimum Humidity 22    
Precipitation  
Precipitation 0.00 in - - ()
Sea Level Pressure  
Sea Level Pressure 30.01 in    
Wind  
Wind Speed 1 mph (SSW)    
Max Wind Speed 9 mph    
Max Gust Speed -    
Visibility 10 miles    
Events      
Averages and records for this station are not official NWS values.
T = Trace of Precipitation, MM = Missing Value Source: NWS Daily Summary

Daily Weather History Graph

Daily Weather History Graph

Search for Another Location

Airport or City:

Trip Planner

Search our weather history database for the weather conditions in past years. The results will help you decide how hot, cold, wet, or windy it might be!

Date:

Astronomy

Apr. 27, 2013 Rise Set
Actual Time 5:55 AM CDT 8:11 PM CDT
Civil Twilight 5:22 AM CDT 8:45 PM CDT
Nautical Twilight 4:40 AM CDT 9:27 PM CDT
Astronomical Twilight 3:53 AM CDT 10:15 PM CDT
Moon 10:48 PM CDT (4/27) 7:08 AM CDT (4/27)
Length of Visible Light 15h 23m
Length of Day
14h 16m
Waning Gibbous, 95% of the Moon is Illuminated
Apr 27
Waning Gibbous
May 2
Last Quarter
May 9
New
May 17
First Quarter
May 24
Full

Hourly Weather History & Observations

Time (CDT) Temp. Dew Point Humidity Pressure Visibility Wind Dir Wind Speed Gust Speed Precip Events Conditions
12:13 AM 30.2 °F 26.6 °F 86% 30.10 in 10.0 mi Calm Calm - N/A   Clear
12:33 AM 30.2 °F 26.6 °F 86% 30.10 in 10.0 mi Calm Calm - N/A   Clear
12:53 AM 30.2 °F 24.8 °F 80% 30.10 in 10.0 mi Calm Calm - N/A   Clear
1:13 AM 30.2 °F 26.6 °F 86% 30.10 in 10.0 mi Calm Calm - N/A   Clear
1:33 AM 30.2 °F 26.6 °F 86% 30.10 in 10.0 mi Calm Calm - N/A   Clear
1:53 AM 28.4 °F 24.8 °F 86% 30.10 in 10.0 mi Calm Calm - N/A   Clear
2:13 AM 28.4 °F 24.8 °F 86% 30.10 in 10.0 mi Calm Calm - N/A   Clear
2:33 AM 28.4 °F 24.8 °F 86% 30.10 in 10.0 mi Calm Calm - N/A   Clear
2:53 AM 28.4 °F 24.8 °F 86% 30.09 in 10.0 mi Calm Calm - N/A   Clear
3:13 AM 28.4 °F 24.8 °F 86% 30.09 in 10.0 mi Calm Calm - N/A   Clear
3:33 AM 28.4 °F 24.8 °F 86% 30.09 in 10.0 mi Calm Calm - N/A   Clear
3:53 AM 28.4 °F 24.8 °F 86% 30.08 in 10.0 mi Calm Calm - N/A   Clear
4:13 AM 28.4 °F 24.8 °F 86% 30.08 in 10.0 mi Calm Calm - N/A   Clear
4:33 AM 26.6 °F 24.8 °F 93% 30.08 in 10.0 mi Calm Calm - N/A   Clear
4:53 AM 26.6 °F 23.0 °F 86% 30.09 in 10.0 mi Calm Calm - N/A   Clear
5:13 AM 26.6 °F 24.8 °F 93% 30.08 in 10.0 mi Calm Calm - N/A   Clear
5:33 AM 26.6 °F 23.0 °F 86% 30.08 in 10.0 mi Calm Calm - N/A   Clear
5:53 AM 26.6 °F 23.0 °F 86% 30.08 in 10.0 mi Calm Calm - N/A   Clear
6:13 AM 26.6 °F 23.0 °F 86% 30.08 in 10.0 mi Calm Calm - N/A   Clear
6:33 AM 26.6 °F 24.8 °F 93% 30.08 in 10.0 mi Calm Calm - N/A   Clear
6:53 AM 28.4 °F 26.6 °F 93% 30.08 in 10.0 mi Calm Calm - N/A   Clear
7:13 AM 33.8 °F 28.4 °F 81% 30.08 in 10.0 mi Calm Calm - N/A   Clear
7:33 AM 37.4 °F 26.6 °F 65% 30.08 in 10.0 mi Calm Calm - N/A   Clear
7:53 AM 39.2 °F 28.4 °F 65% 30.08 in 10.0 mi Calm Calm - N/A   Clear
8:13 AM 44.6 °F 30.2 °F 57% 30.09 in 10.0 mi Calm Calm - N/A   Clear
8:33 AM 50.0 °F 30.2 °F 47% 30.09 in 10.0 mi Calm Calm - N/A   Clear
8:53 AM 51.8 °F 30.2 °F 44% 30.09 in 10.0 mi Calm Calm - N/A   Clear
9:13 AM 53.6 °F 28.4 °F 38% 30.08 in 10.0 mi Calm Calm - N/A   Clear
9:33 AM 57.2 °F 28.4 °F 33% 30.07 in 10.0 mi Calm Calm - N/A   Clear
9:53 AM 59.0 °F 28.4 °F 31% 30.07 in 10.0 mi Calm Calm - N/A   Clear
10:13 AM 62.6 °F 28.4 °F 27% 30.07 in 10.0 mi Calm Calm - N/A   Clear
10:33 AM 66.2 °F 28.4 °F 24% 30.06 in 10.0 mi Calm Calm - N/A   Clear
10:53 AM 64.4 °F 28.4 °F 26% 30.06 in 10.0 mi Calm Calm - N/A   Clear
11:13 AM 62.6 °F 26.6 °F 26% 30.06 in 10.0 mi Calm Calm - N/A   Clear
11:33 AM 60.8 °F 26.6 °F 27% 30.06 in 10.0 mi South 5.8 mph - N/A   Clear
11:53 AM 59.0 °F 26.6 °F 29% 30.06 in 10.0 mi Calm Calm - N/A   Clear
12:13 PM 60.8 °F 26.6 °F 27% 30.05 in 10.0 mi SSW 4.6 mph - N/A   Clear
12:33 PM 60.8 °F 24.8 °F 25% 30.04 in 10.0 mi SSW 5.8 mph - N/A   Clear
12:53 PM 60.8 °F 24.8 °F 25% 30.03 in 10.0 mi South 8.1 mph - N/A   Clear
1:14 PM 57.2 °F 26.6 °F 31% 30.03 in 10.0 mi South 6.9 mph - N/A   Clear
1:33 PM 60.8 °F 26.6 °F 27% 30.02 in 10.0 mi Calm Calm - N/A   Clear
1:53 PM 60.8 °F 24.8 °F 25% 30.01 in 10.0 mi SSW 5.8 mph - N/A   Clear
2:13 PM 60.8 °F 24.8 °F 25% 30.00 in 10.0 mi SSW 9.2 mph - N/A   Clear
2:33 PM 62.6 °F 24.8 °F 24% 29.99 in 10.0 mi SSW 5.8 mph - N/A   Clear
2:53 PM 62.6 °F 24.8 °F 24% 29.98 in 10.0 mi South 8.1 mph - N/A   Clear
3:13 PM 62.6 °F 23.0 °F 22% 29.98 in 10.0 mi SW 6.9 mph - N/A   Clear
3:33 PM 60.8 °F 24.8 °F 25% 29.97 in 10.0 mi SSW 6.9 mph - N/A   Clear
3:53 PM 60.8 °F 24.8 °F 25% 29.96 in 10.0 mi Calm Calm - N/A   Clear
4:13 PM 60.8 °F 24.8 °F 25% 29.96 in 10.0 mi Calm Calm - N/A   Clear
4:33 PM 62.6 °F 24.8 °F 24% 29.95 in 10.0 mi SSW 3.5 mph - N/A   Clear
4:53 PM 62.6 °F 24.8 °F 24% 29.94 in 10.0 mi Calm Calm - N/A   Clear
5:13 PM 62.6 °F 24.8 °F 24% 29.94 in 10.0 mi Calm Calm - N/A   Clear
5:33 PM 62.6 °F 24.8 °F 24% 29.93 in 10.0 mi Calm Calm - N/A   Clear
5:53 PM 60.8 °F 24.8 °F 25% 29.93 in 10.0 mi Calm Calm - N/A   Clear
6:13 PM 57.2 °F 24.8 °F 29% 29.92 in 10.0 mi Calm Calm - N/A   Clear
6:33 PM 57.2 °F 24.8 °F 29% 29.92 in 10.0 mi Calm Calm - N/A   Clear
6:53 PM 55.4 °F 24.8 °F 31% 29.91 in 10.0 mi Calm Calm - N/A   Clear
7:13 PM 53.6 °F 24.8 °F 33% 29.90 in 10.0 mi Calm Calm - N/A   Clear
7:33 PM 50.0 °F 26.6 °F 40% 29.90 in 10.0 mi Calm Calm - N/A   Clear
7:53 PM 46.4 °F 28.4 °F 50% 29.91 in 10.0 mi Calm Calm - N/A   Clear
8:13 PM 44.6 °F 28.4 °F 53% 29.90 in 10.0 mi Calm Calm - N/A   Clear
8:33 PM 44.6 °F 28.4 °F 53% 29.90 in 10.0 mi Calm Calm - N/A   Clear
8:53 PM 44.6 °F 28.4 °F 53% 29.90 in 10.0 mi Calm Calm - N/A   Clear
9:13 PM 42.8 °F 26.6 °F 53% 29.89 in 10.0 mi Calm Calm - N/A   Clear
9:33 PM 37.4 °F 26.6 °F 65% 29.89 in 10.0 mi Calm Calm - N/A   Clear
9:53 PM 37.4 °F 26.6 °F 65% 29.89 in 10.0 mi Calm Calm - N/A   Clear
10:13 PM 35.6 °F 26.6 °F 70% 29.89 in 10.0 mi Calm Calm - N/A   Clear
10:33 PM 33.8 °F 26.6 °F 75% 29.88 in 10.0 mi Calm Calm - N/A   Clear
10:53 PM 33.8 °F 24.8 °F 70% 29.88 in 10.0 mi Calm Calm - N/A   Clear
11:13 PM 33.8 °F 26.6 °F 75% 29.87 in 10.0 mi Calm Calm - N/A   Clear
11:33 PM 33.8 °F 24.8 °F 70% 29.86 in 10.0 mi Calm Calm - N/A   Clear
11:53 PM 33.8 °F 24.8 °F 70% 29.86 in 10.0 mi Calm Calm - N/A   Clear